www.pogodaiklimat.ru

Погода и климат >> Архив погоды >> Россия >> Челябинская область >> Бреды


АРХИВ ПОГОДЫ в Бредах

Время (UTC), дата Ветер
(напр.,м/с)
 
Видим.   Явления Облачность Т
(С)
Тd
(С)
f
(%)
Тe
(С)
Тes
(С)
Комфортность P
(гПа)
Po
(гПа)
Тmin
(С)
Tmax
(С)
R
(мм)
R24
(мм)
S
(см)
21 12.07 В 4
{10}
10 км ясно +25.1 +6.5 30 +25 +25 комфорт 1007.2 972.3
00 13.07 В 2 50 км 4/0
[Ci sp]
+21.6 +6.7 38 +22 +22 комфорт 1007.4 972.1
03 13.07 ЮВ 2 50 км 6/4 1000 м
[Cu hum Ci fib]
+26.7 +7.2 29 +26 +29 жарко 1006.4 971.7 +20.9
06 13.07 ЮВ 3 50 км 6/6 1000 м
[Cu hum]
+36.0 +5.1 15 +33 +38 жарко 1005.0 971.4
09 13.07 Ю 4 50 км 8/6 1000 м
[Cu hum Ci fib]
+38.6 +2.9 11 +35 +39 очень
жарко
1004.3 970.9
12 13.07 Ю 4 50 км 8/6 1000 м
[Cu med, cong Ci sp]
+38.5 +1.1 10 +35 +37 очень
жарко
1003.5 970.2
15 13.07 ЮВ 3 50 км 6/0
[Cc]
+34.7 +3.5 14 +32 +32 жарко 1003.9 970.1 +39.4
18 13.07 В 4 10 км 6/0
[Ac lent Cc]
+28.2 +5.4 23 +27 +27 жарко 1006.0 971.5
21 13.07 ЮВ 3 10 км 4/0
[Ci sp]
+24.0 +4.0 27 +24 +24 комфорт 1006.7 971.6
00 14.07 В 1 50 км ясно +17.4 +5.2 45 +18 +18 1007.8 972.0
03 14.07 ЮВ 3 50 км 4/0
[Ci fib]
+25.4 +6.1 29 +25 +28 комфорт 1006.3 971.5 +17.3
06 14.07 ЮВ 4 50 км 3/0
[Ci fib]
+33.1 +3.7 16 +30 +39 жарко 1005.6 971.6
09 14.07 В 4
{10}
50 км 8/0
[Ci sp]
+34.8 +0.9 12 +31 +40 жарко 1004.5 970.7
12 14.07 Ю 3 50 км 9/0
[Ac lent Ci sp]
+35.6 +1.6 12 +32 +36 жарко 1003.3 969.6
15 14.07 штиль 0 50 км 10/4 1000 м
[Sc Ci sp]
+31.9 +6.8 21 +30 +31 жарко 1003.4 969.4 +36.8
18 14.07 СВ 2 10 км 6/1 1000 м
[Sc Ci sp]
+25.5 +7.1 31 +25 +25 комфорт 1003.7 968.9
21 14.07 В 3 10 км 8/0
[Ac cast Ci sp]
+23.8 +4.1 28 +23 +23 комфорт 1002.7 967.8
00 15.07 В 3 50 км в посл. час ливневой дождь 10/4 600 м
[Cb cap Ac cast Cc]
+24.3 +6.2 31 +24 +24 комфорт 1001.2 966.4
03 15.07 В 5
{11}
50 км {ливн. осадки} 9/6 600 м
[Cb cap Ac cast Ci sp]
+25.6 +6.5 29 +25 +26 комфорт 999.1 964.5 +23.7 0.0
06 15.07 Ю 7-12
{14}
50 км пыльный позёмок {ливн. осадки} 6/4 1000 м
[Cu med, cong Ci sp]
+33.7 +3.4 15 +31 +33 жарко 996.3 962.7
09 15.07 ЮЗ 5-11
{13}
50 км пыльный позёмок 4/4 1000 м
[Cu med, cong]
+31.8 +10.2 26 +31 +36 жарко 997.7 963.9
12 15.07 ЮЗ 6-12
{14}
50 км пыльный позёмок 3/3 1000 м
[Cu hum]
+27.3 +10.2 34 +28 +30 жарко 1000.1 965.8
15 15.07 З 4-11
{12}
50 км 6/3 1000 м
[Cu med, cong Cc]
+21.5 +9.9 48 +23 +23 комфорт 1003.0 967.9 +33.8
18 15.07 З 5
{14}
10 км 8/0
[Ac lent Cc]
+17.6 +9.2 58 +17 +17 1005.3 969.6
21 15.07 З 2
{11}
10 км 6/0
[Ac lent Ci sp]
+14.5 +8.9 69 +14 +14 1006.5 970.3
00 16.07 З 2 50 км 3/0
[Ac lent]
+12.5 +8.6 77 +12 +12 1008.1 971.7
03 16.07 З 3 50 км ясно +17.1 +10.0 63 +17 +21 1009.3 973.4 +12.4
06 16.07 СЗ 7-12
{12}
50 км пыльный позёмок ясно +23.5 +8.4 38 +24 +28 комфорт 1008.6 973.5
09 16.07 З 4
{12}
50 км ясно +26.8 +6.9 28 +26 +37 жарко 1008.8 974.0
12 16.07 СЗ 4
{10}
50 км ясно +29.3 +5.9 23 +28 +33 жарко 1009.0 974.5
15 16.07 СЗ 3 50 км 4/0
[Ci fib]
+26.8 +5.9 26 +26 +26 жарко 1009.8 975.0 +29.5
18 16.07 СЗ 2 10 км 6/0
[Ac lent Cc]
+21.0 +7.9 43 +23 +23 комфорт 1012.1 976.6
21 16.07 СЗ 1 10 км ясно +13.5 +8.2 70 +14 +14 1014.1 977.6
00 17.07 ЮЗ 1 50 км 3/0
[Ac lent]
+11.6 +7.7 77 +12 +12 1015.7 978.9
03 17.07 В 3 50 км 8/0
[Ac und Cc]
+20.9 +9.8 49 +23 +25 комфорт 1015.1 979.4 +11.5
06 17.07 ЮВ 2 50 км 8/0
[Ac cast Cc]
+25.9 +8.0 32 +26 +35 жарко 1013.8 978.7
09 17.07 ЮВ 2 50 км 8/0
[Ac cast Ci fib]
+29.0 +7.4 26 +28 +37 жарко 1012.6 978.0
12 17.07 ЮЗ 1 50 км 4/0
[Ac lent]
+30.0 +5.6 21 +28 +34 жарко 1011.6 977.0
15 17.07 СВ 2 50 км 4/0
[Ac lent Ci fib]
+27.9 +7.4 27 +27 +28 жарко 1011.3 976.6 +30.3
18 17.07 СВ 3 10 км 10/10 1000 м
[Sc]
+22.7 +8.5 40 +24 +24 комфорт 1011.7 976.3
21 17.07 СВ 2 10 км 10/10 1000 м
[Sc]
+19.4 +11.8 61 +21 +21 комфорт 1012.0 976.3
00 18.07 СВ 1 50 км 6/0
[Ac cast]
+17.1 +9.7 62 +18 +18 1012.6 976.6
03 18.07 ЮВ 2 50 км ясно +22.2 +8.9 43 +24 +28 комфорт 1012.0 976.6 +16.3
06 18.07 Ю 4 50 км 3/0
[Ci sp]
+30.7 +5.3 20 +29 +37 жарко 1010.2 975.8
09 18.07 Ю 5
{10}
50 км 6/1 1000 м
[Sc Ci sp]
+34.2 +3.5 15 +31 +38 жарко 1008.7 974.7
12 18.07 Ю 3 50 км 8/4 1000 м
[Cu med, cong Ac lent Ci sp]
+35.1 +3.1 13 +32 +34 жарко 1007.6 973.8
15 18.07 ЮВ 1 50 км 6/3 1000 м
[Sc Ac cast Ci sp]
+31.3 +5.3 19 +29 +29 жарко 1007.8 973.5 +35.4
18 18.07 З 1 10 км 10/0
[Ac As]
+27.8 +6.8 26 +27 +27 жарко 1009.0 974.3
21 18.07 Ю 4 10 км 6/0
[Ac cast]
+24.7 +5.0 28 +24 +24 комфорт 1009.3 974.2
00 19.07 Ю 2 50 км 8/0
[Ac cast Ci sp]
+22.4 +4.5 31 +23 +23 комфорт 1009.6 974.3
03 19.07 Ю 5
{10}
50 км 9/6 1000 м
[Sc Ac cast Ci sp]
+26.7 +4.2 24 +26 +26 жарко 1009.4 974.5 +19.5
06 19.07 В 3 50 км в посл. час гроза {ливн. осадки} 10/6 600 м
[Cb cap Ac lent Cc]
+27.4 +8.9 31 +27 +30 жарко 1010.4 975.7
09 19.07 СВ 3 50 км 8/8 1000 м
[Cu Sc]
+28.1 +11.2 35 +29 +31 жарко 1009.7 975.1
12 19.07 В 2 50 км 10/4 600 м
[Cb cap Ac und]
+30.1 +8.8 27 +30 +31 жарко 1009.1 974.7
15 19.07 ЮВ 1 50 км 10/0
[Ac und]
+26.8 +11.5 38 +28 +28 жарко 1009.7 975.0 +32.1 0.3

 

Местоположение метеостанции Бреды (Челябинская область, Россия): широта 52.43 долгота 60.35 высота над уровнем моря 310 м.

В архиве по умолчанию представлена погода в Бредах за последнюю неделю. Архивные данные за месяц целиком и за предыдущие месяцы, начиная с января 2011 года, Вы можете получить, выбрав интересующий диапазон дат из раскрывающегося списка и нажав кнопку "Ввод!".


*Определитесь, кто Вы:
робот инопланетянин человек

Внимание! Время в таблицах - всемирное. Для получения местного времени необходимо прибавить поправку, которая равна 5 ч.

Смотрите также архив погоды в соседних городах и на ближайших метеорологических станциях:

Погода в Айдырля (Оренбургская область, Россия) (62 км)
Погода в Аршалынском (Акмолинская область, Казахстан) (66 км)
Погода в Житикаре (Костанайская область, Казахстан) (67 км)
Погода в Карталы (Челябинская область, Россия) (72 км)
Погода в Кизильском (Челябинская область, Россия) (104 км)
Погода в Энергетике (Оренбургская область, Россия) (127 км)
Погода в Магнитогорске (Челябинская область, Россия) (133 км)
Погода в Зерносовхозе Озерном (Оренбургская область, Россия) (152 км)
Погода в Тоболе (Костанайская область, Казахстан) (155 км)
Погода в Михайловке (Костанайская область, Казахстан) (156 км)

Пояснения к столбцам:

Ветер - указаны скорость ветра в м/с - средняя за 10 мин, порывы в срок и между сроками (в фигурных скобках) и направление, откуда дует ветер: С - северный, СВ - северо-восточный, В - восточный, ЮВ - юго-восточный, Ю - южный, ЮЗ - юго-западный, З - западный, СЗ - северо-западный.
Видимость - горизонтальная дальность видимости в метрах или километрах. При видимости от 1 до 10 км при отсутствии осадков обычно наблюдается дымка, при ухудшении видимости до 1 км и менее - туман. В сухую погоду видимость может ухудшаться дымом, пылью или мглою.
Явления - указаны атмосферные явления, наблюдавшиеся в срок или в последний час перед сроком; фигурными скобками обозначены явления, наблюдавшиеся между сроками (за 1-3 часа до срока); квадратными скобками обозначены град или гололедные отложения с указанием их диаметра в мм.
Облачность - указаны через наклонную черту общая и нижняя облачность в баллах и высота нижней границы облаков в метрах; квадратными скобками обозначены формы облаков: Ci - перистые, Cs - перисто-слоистые, Cc - перисто-кучевые, Ac - высококучевые, As - высокослоистые, Sc - слоисто-кучевые, Ns - слоисто-дождевые, Cu - кучевые, Cb - кучево-дождевые. Подробнее классификацию облаков см. в Атласе облаков (PDF).
T - Температура воздуха - температура, измеренная на высоте 2 м над землей.
Td - Температура точки росы - температура, при понижении до которой содержащийся в воздухе водяной пар достигнет насыщения.
f - Относительная влажность воздуха - влажноcть воздуха, измеренная на высоте 2 м над землей.
Te - Эффективная температура - температура, которую ощущает одетый по сезону человек в тени. Характеристика душности погоды. При расчете учитывается влияние влажности воздуха и скорости ветра на теплоощущения человека.
Tes - Эффективная температура на солнце - температура, которую ощущает человек, с поправкой на солнечный нагрев. Характеристика знойности погоды. Зависит от высоты солнца над горизонтом, облачности и скорости ветра. Ночью, в пасмурную погоду, а также при ветре 12 м/с и более поправка равна нулю.
P - Атмосферное давление - приведенное к уровню моря атмосферное давление.
Po - Атмосферное давление - измеренное на уровне метеостанции атмосферное давление.
Tmin - Минимальная температура - минимум температуры воздуха на высоте 2 м над землей.
Tmax - Максимальная температура - максимум температуры воздуха на высоте 2 м над землей.
R - Количество осадков - Количество выпавших осадков за период времени, мм. При наведении курсора мыши на число - период времени, за который выпало указанное количество осадков.
R24 - Количество осадков - Количество выпавших осадков за 24 часа, мм.
S - Снежный покров - Высота снежного покрова, см. При наведении курсора мыши на число - состояние снежного покрова и степень покрытия местности в баллах.